Temp
75 75 75 78 79 80 80 80 81 81 81 80 80 81 81 81 79 79 78 77 77 76 77 77 78 78 77 77 77 77 78 78 78 78 77 77 78 77 77 77 78 77 78 77 77 77 79 80 80 80 79 79 79 79 79 79 79 80 78 79 79 78 77
73 74 75 78 78 79 80 81 81 81 80 81 80 80 81 80 79 79 78 78 77 77 77 78 78 78 78 78 78 77 78 78 79 79 79 78 79 77 78 78 78 77 77 78 78 78 79 80 80 80 80 80 80 79 79 79 78 78 78 78 77 78 78
72 74 75 77 78 78 79 81 81 81 81 81 81 81 81 79 80 79 78 78 77 77 78 78 78 78 78 78 78 78 78 78 79 79 78 79 78 80 79 78 78 78 79 79 79 79 81 80 79 80 80 80 80 79 79 78 79 78 78 77 78 77 77
72 72 74 76 78 79 81 81 80 81 82 82 81 81 81 80 81 80 80 79 78 77 77 78 79 79 78 78 78 78 78 78 79 80 81 80 80 80 79 78 78 79 79 79 81 82 84 80 80 79 82 79 79 80 79 79 79 78 78 77 77 77 77
71 71 71 72 74 79 79 80 80 80 81 82 82 82 81 81 81 81 80 80 80 78 79 80 81 80 80 80 81 80 79 79 79 80 80 80 80 80 80 80 79 80 80 81 80 80 79 79 80 79 80 78 79 79 79 79 79 78 77 77 77 77 77
71 70 67 70 74 77 80 80 81 80 81 81 81 81 81 81 81 81 81 80 80 80 80 80 80 80 79 80 81 81 80 79 79 79 80 80 79 79 80 80 81 81 80 81 81 81 80 80 80 80 80 80 80 80 80 79 79 80 77 77 77 78 78
69 69 69 69 72 72 75 80 81 81 82 82 82 82 81 81 80 80 81 80 80 79 79 80 81 80 79 80 80 80 79 80 79 80 80 81 81 80 80 81 81 81 82 80 81 81 80 80 80 81 81 81 80 81 80 79 79 79 78 77 77 77 77
68 69 69 71 72 74 72 71 79 82 82 81 81 80 80 81 81 80 80 80 81 79 79 79 80 80 79 80 81 80 80 81 80 81 80 81 81 80 80 81 81 81 81 81 81 82 82 81 82 81 81 82 80 80 80 79 79 80 79 78 77 77 81
69 69 70 71 71 72 71 71 69 78 81 80 80 79 80 80 80 81 81 80 80 79 79 80 80 80 79 80 80 80 81 81 81 80 80 81 81 82 82 82 82 82 81 82 82 82 83 82 82 81 81 81 80 79 79 79 80 80 79 78 78 78 79
69 69 70 70 70 69 71 70 71 69 76 79 78 78 79 79 80 81 81 81 80 80 80 81 79 80 79 79 79 81 81 80 81 82 81 81 81 82 82 83 82 82 83 83 83 82 82 83 83 81 80 81 80 79 80 79 80 80 80 79 79 79 78
68 69 69 68 68 69 70 70 69 70 72 76 78 78 77 77 79 80 80 79 80 80 80 81 79 79 79 80 78 80 81 81 82 82 81 82 82 82 83 83 84 82 83 82 80 81 80 79 80 79 80 82 80 80 79 80 80 80 81 81 81 81 81
68 69 68 68 68 69 69 69 71 71 73 76 78 76 74 74 74 76 76 78 80 78 77 78 79 80 79 80 79 78 80 81 82 82 82 82 83 84 84 84 84 83 76 74 75 75 73 73 75 77 78 78 79 79 80 80 80 80 80 81 81 81 81
68 68 68 69 68 68 69 70 71 71 70 71 70 71 74 73 73 73 73 75 77 77 76 76 78 78 79 79 79 77 79 80 81 82 83 82 83 84 84 84 83 76 76 77 77 76 75 75 75 74 76 79 80 80 79 79 81 79 79 80 80 80 80
69 67 68 68 68 68 69 69 69 69 69 71 70 70 71 73 74 73 73 73 74 75 75 75 76 77 77 78 78 77 78 79 80 81 81 82 81 81 83 84 81 76 78 78 77 78 78 76 76 77 79 78 79 79 80 78 76 78 79 80 80 80 79
67 67 67 68 68 67 69 69 68 69 69 70 70 70 70 70 72 72 72 73 73 73 74 74 75 76 76 76 76 74 74 74 74 75 76 76 76 78 78 80 79 79 79 78 78 80 79 79 78 78 77 78 78 79 78 76 77 76 77 78 79 79 79
66 66 67 67 67 68 69 69 68 69 69 69 70 70 70 70 71 72 71 71 71 72 73 73 74 74 74 74 73 73 73 74 74 73 74 75 75 74 75 77 79 80 79 79 79 79 78 80 80 80 79 77 77 77 77 76 76 75 74 76 77 77 80
65 66 66 66 67 68 68 68 69 69 69 69 69 69 69 69 70 71 71 71 71 71 72 72 73 73 73 72 71 71 73 73 73 72 73 73 74 73 74 75 77 76 76 76 76 76 77 79 80 81 81 80 78 75 74 73 72 70 65 67 73 79 77
65 66 66 65 65 67 68 69 69 69 69 69 69 69 69 69 70 70 70 71 71 71 71 71 72 72 71 70 69 70 71 72 72 72 72 72 73 73 72 74 74 74 74 75 75 75 76 77 77 77 78 78 75 73 71 68 65 62 65 67 69 77 77
64 65 65 65 65 65 66 67 68 70 69 70 70 70 70 71 70 70 70 70 70 71 71 70 70 70 69 69 69 69 69 70 71 71 71 72 73 73 72 72 73 73 73 73 74 74 74 74 75 74 74 73 72 70 69 67 63 62 64 65 66 66 75
66 65 65 65 66 65 65 65 66 67 69 70 71 71 71 71 70 70 70 70 70 70 70 70 70 69 69 68 68 68 69 70 69 70 70 71 72 72 72 72 72 72 73 73 73 73 73 73 72 71 70 70 69 67 67 66 62 61 62 62 64 65 69
65 65 65 65 64 64 65 65 65 66 67 68 69 70 70 70 71 70 70 70 70 70 70 70 69 68 68 68 68 68 69 70 70 69 69 70 70 71 71 71 71 71 72 72 72 72 72 72 71 71 70 70 69 68 66 66 60 59 61 61 62 64 74
66 66 64 65 65 64 64 64 63 64 64 67 68 68 68 68 69 70 70 71 70 70 70 69 69 68 68 68 69 69 69 70 70 70 69 69 70 70 70 70 71 71 72 72 72 72 72 72 72 70 68 68 68 67 66 65 59 58 59 60 61 67 75
66 66 66 66 66 65 66 65 64 64 65 66 67 67 67 68 68 68 69 69 69 70 70 69 69 68 69 69 70 70 70 70 69 69 69 70 71 71 71 71 70 70 71 71 71 71 71 70 70 69 68 67 67 66 64 65 61 57 57 58 59 70 73
67 67 67 66 66 66 66 66 66 66 66 65 66 67 67 67 67 67 67 67 68 68 68 68 68 69 69 69 70 70 70 70 70 69 70 71 70 70 71 70 70 70 71 70 70 70 70 69 69 69 68 67 65 66 65 65 62 56 57 57 60 71 72
67 68 68 68 67 66 66 66 67 67 67 66 66 66 67 67 67 67 66 67 67 67 67 67 67 68 68 68 69 70 70 70 70 70 70 69 69 70 69 70 70 70 70 70 70 70 70 70 68 67 67 67 68 71 65 64 64 57 56 57 59 67 70
65 67 68 69 69 68 68 68 68 67 67 66 66 68 68 67 67 67 66 66 67 67 66 66 66 67 67 68 68 69 69 69 70 70 69 69 68 69 69 70 69 69 69 69 70 69 69 68 68 66 66 67 67 67 65 64 63 61 56 56 58 62 69
67 68 67 68 68 69 68 68 68 68 68 67 68 69 69 68 67 66 66 65 65 65 66 66 67 67 66 67 67 67 68 68 68 68 68 68 67 68 68 68 68 68 68 68 67 67 66 66 66 65 65 66 66 65 65 66 64 61 56 55 57 60 66
68 68 69 69 70 69 68 68 68 68 69 69 70 70 69 68 66 66 66 65 65 66 67 67 67 67 67 67 67 68 68 67 66 67 66 67 67 65 65 66 67 68 67 67 66 66 66 66 66 64 64 65 66 65 64 68 68 64 59 56 55 57 61
65 65 66 66 67 68 69 67 67 67 67 69 70 70 69 68 66 66 66 64 65 67 67 67 67 67 67 67 67 68 68 68 68 68 68 67 67 66 65 66 67 67 67 67 67 66 66 66 66 65 64 64 64 64 65 65 68 67 64 58 54 54 57
65 65 66 68 68 67 67 65 65 65 67 68 68 68 68 68 66 66 66 65 67 68 68 68 68 68 68 68 67 67 68 69 69 69 68 67 67 66 65 65 66 66 66 66 66 65 65 65 65 65 65 64 64 65 65 65 64 67 67 63 57 55 54
64 64 64 64 65 66 65 64 63 63 64 64 64 65 65 67 67 66 65 66 68 68 68 68 68 67 66 65 65 66 66 66 66 67 67 67 67 66 66 66 66 66 66 66 65 65 65 65 66 65 65 64 64 63 64 65 64 63 67 69 66 59 56
64 64 64 64 63 64 63 63 63 62 62 62 63 63 64 63 65 64 63 65 66 65 66 67 66 66 65 65 66 65 66 66 66 65 66 67 67 67 66 66 66 66 65 65 65 64 65 65 66 65 65 64 63 63 64 64 63 63 63 65 67 65 61
63 63 63 62 62 63 62 61 61 61 62 61 61 62 63 62 62 63 64 65 65 65 66 67 67 67 65 64 65 65 65 64 64 64 64 65 65 66 66 65 64 66 65 64 64 64 65 66 66 65 65 65 63 63 62 62 61 61 61 60 61 61 62
61 61 61 62 61 61 60 59 59 59 60 59 59 61 62 62 62 62 63 65 66 66 66 67 67 64 63 64 65 65 65 65 69 65 61 62 63 63 63 62 63 61 61 60 62 62 62 64 63 62 64 63 63 62 61 60 59 58 57 57 56 57 58
60 60 60 60 60 60 59 59 58 58 59 58 58 59 60 61 62 63 62 63 64 64 65 66 68 65 64 64 64 65 67 65 64 62 61 59 57 54 54 57 60 60 57 56 56 61 63 61 61 63 62 63 62 61 60 60 59 59 54 53 51 50 54
60 60 60 60 62 61 61 60 59 59 59 57 58 59 60 60 61 62 63 62 62 62 64 65 64 62 63 63 62 63 64 63 62 61 61 60 58 57 56 53 47 49 57 58 55 50 47 55 60 61 59 57 56 57 59 59 60 51 45 44 43 43 43
62 61 61 61 61 60 60 60 60 59 59 58 59 59 60 60 60 61 62 62 62 62 62 62 63 62 62 63 62 63 64 62 60 59 58 59 58 58 58 56 54 44 44 50 51 46 42 44 48 53 57 61 56 53 49 50 46 43 43 42 41 41 40
63 63 62 62 62 61 60 60 60 60 59 58 58 58 59 60 61 61 63 62 61 61 60 61 62 60 60 59 62 66 64 60 62 61 60 57 57 58 57 56 55 55 46 43 45 46 42 41 43 46 49 52 55 57 53 48 45 42 41 41 41 40 40
MSLP
1014.30 1014.34 1014.46 1014.38 1014.66 1014.90 1015.14 1015.22 1015.34 1015.62 1015.94 1016.26 1016.54 1016.74 1016.94 1017.14 1017.42 1017.66 1018.06 1018.26 1018.50 1018.78 1018.70 1018.70 1018.82 1018.90 1019.10 1019.18 1019.22 1019.30 1019.34 1019.46 1019.58 1019.86 1020.02 1020.18 1020.22 1020.42 1020.62 1020.66 1020.78 1020.82 1020.86 1021.06 1021.06 1021.06 1020.86 1020.70 1020.78 1020.78 1020.78 1020.78 1020.82 1020.82 1020.78 1020.74 1020.86 1020.86 1020.82 1020.82 1020.86 1020.98 1021.10
1014.74 1014.38 1014.46 1014.26 1014.50 1014.74 1014.74 1014.82 1014.98 1015.30 1015.74 1015.94 1016.26 1016.50 1016.74 1016.98 1017.26 1017.58 1017.82 1018.02 1018.22 1018.42 1018.54 1018.62 1018.78 1018.86 1018.94 1019.02 1019.06 1019.18 1019.34 1019.38 1019.42 1019.58 1019.74 1019.98 1020.02 1020.14 1020.18 1020.38 1020.54 1020.66 1020.62 1020.62 1020.62 1020.62 1020.62 1020.58 1020.62 1020.70 1020.78 1020.70 1020.70 1020.66 1020.74 1020.70 1020.74 1020.82 1020.90 1020.90 1021.02 1021.10 1021.18
1014.62 1014.42 1014.30 1014.26 1014.34 1014.54 1014.66 1014.62 1014.82 1015.06 1015.42 1015.70 1015.98 1016.34 1016.58 1016.82 1016.94 1017.22 1017.58 1017.90 1018.18 1018.34 1018.38 1018.50 1018.58 1018.78 1018.78 1018.90 1019.06 1019.14 1019.14 1019.26 1019.38 1019.54 1019.78 1019.94 1020.02 1020.02 1020.02 1020.14 1020.30 1020.42 1020.38 1020.34 1020.38 1020.46 1020.34 1020.46 1020.46 1020.50 1020.58 1020.70 1020.62 1020.66 1020.66 1020.70 1020.70 1020.78 1020.82 1020.90 1020.98 1021.10 1021.22
1014.50 1014.38 1014.38 1014.06 1013.78 1014.02 1014.14 1014.30 1014.66 1014.86 1014.98 1015.18 1015.58 1015.90 1016.22 1016.54 1016.54 1016.78 1017.10 1017.46 1017.94 1018.18 1018.42 1018.38 1018.50 1018.66 1018.74 1018.90 1019.02 1019.10 1019.10 1019.10 1019.18 1019.34 1019.46 1019.54 1019.74 1019.74 1019.98 1020.10 1020.18 1020.22 1020.38 1020.38 1020.22 1020.18 1020.18 1020.26 1020.38 1020.46 1020.42 1020.58 1020.58 1020.58 1020.62 1020.66 1020.66 1020.74 1020.78 1020.90 1021.02 1020.98 1021.06
1014.34 1014.54 1014.58 1015.06 1014.90 1014.14 1014.22 1014.34 1014.54 1014.66 1014.86 1014.86 1015.14 1015.34 1015.74 1016.06 1016.30 1016.66 1017.02 1017.14 1017.42 1017.82 1017.86 1018.02 1018.14 1018.34 1018.46 1018.54 1018.78 1018.86 1018.94 1018.98 1019.10 1019.14 1019.22 1019.34 1019.42 1019.62 1019.90 1020.02 1020.10 1020.18 1020.10 1020.06 1020.06 1020.14 1020.18 1020.30 1020.34 1020.42 1020.50 1020.50 1020.54 1020.58 1020.62 1020.58 1020.62 1020.66 1020.78 1020.86 1021.06 1021.02 1021.06
1014.46 1014.74 1015.22 1015.50 1015.14 1014.54 1013.94 1014.02 1014.10 1014.38 1014.58 1014.94 1015.14 1015.42 1015.62 1015.90 1016.14 1016.62 1016.78 1017.10 1017.34 1017.50 1017.66 1017.86 1018.06 1018.22 1018.50 1018.46 1018.54 1018.70 1018.74 1018.82 1018.82 1018.94 1019.10 1019.22 1019.38 1019.66 1019.78 1019.78 1019.90 1019.94 1020.02 1019.98 1019.86 1019.90 1019.98 1020.14 1020.22 1020.30 1020.50 1020.46 1020.46 1020.54 1020.54 1020.58 1020.54 1020.50 1020.66 1020.78 1020.90 1020.94 1021.06
1014.54 1015.06 1015.70 1015.74 1015.26 1015.18 1014.70 1014.02 1013.90 1013.94 1014.02 1014.34 1014.70 1014.98 1015.38 1015.70 1016.06 1016.30 1016.54 1016.94 1017.10 1017.54 1017.74 1017.82 1017.86 1018.02 1018.26 1018.26 1018.42 1018.54 1018.82 1018.86 1018.86 1018.94 1018.94 1019.10 1019.14 1019.38 1019.46 1019.46 1019.50 1019.62 1019.58 1019.62 1019.82 1019.70 1019.94 1020.02 1020.06 1020.10 1020.22 1020.34 1020.38 1020.46 1020.54 1020.58 1020.58 1020.46 1020.54 1020.70 1020.82 1020.82 1020.86
1014.78 1014.62 1014.70 1014.82 1015.18 1014.74 1015.38 1015.94 1014.42 1013.70 1013.86 1014.18 1014.66 1015.10 1015.42 1015.54 1015.78 1016.22 1016.50 1016.66 1016.86 1017.18 1017.50 1017.70 1017.74 1017.86 1018.02 1018.14 1018.22 1018.46 1018.62 1018.66 1018.66 1018.74 1018.86 1019.02 1019.10 1019.26 1019.26 1019.26 1019.30 1019.26 1019.34 1019.62 1019.54 1019.46 1019.70 1019.78 1019.86 1019.90 1019.98 1020.18 1020.26 1020.30 1020.38 1020.38 1020.42 1020.42 1020.46 1020.70 1020.82 1020.82 1020.74
1014.58 1014.82 1014.54 1014.78 1015.06 1015.18 1014.94 1015.46 1016.34 1015.22 1013.90 1014.30 1014.50 1014.86 1015.10 1015.42 1015.74 1015.94 1016.18 1016.42 1016.66 1017.02 1017.30 1017.26 1017.42 1017.50 1017.74 1017.98 1018.22 1018.34 1018.38 1018.46 1018.62 1018.66 1018.82 1018.98 1019.02 1019.10 1019.10 1019.06 1019.02 1018.98 1019.22 1019.30 1019.34 1019.22 1019.30 1019.46 1019.58 1019.70 1019.82 1020.02 1020.10 1020.18 1020.26 1020.30 1020.30 1020.26 1020.42 1020.58 1020.70 1020.78 1020.74
1014.74 1014.86 1014.66 1014.82 1015.14 1015.50 1015.10 1015.22 1015.38 1016.22 1015.22 1014.18 1014.66 1014.90 1015.02 1015.18 1015.38 1015.58 1015.82 1016.14 1016.42 1016.86 1016.98 1017.10 1017.26 1017.34 1017.62 1017.90 1018.10 1018.14 1018.30 1018.46 1018.42 1018.58 1018.74 1018.90 1018.86 1018.90 1018.82 1018.78 1018.82 1018.74 1018.90 1018.98 1018.98 1019.18 1019.10 1019.14 1019.30 1019.50 1019.78 1019.94 1020.02 1020.06 1020.14 1020.22 1020.18 1020.22 1020.30 1020.42 1020.50 1020.58 1020.62
1014.38 1014.30 1014.54 1014.90 1015.30 1015.22 1015.30 1015.70 1016.34 1016.50 1016.50 1014.70 1014.42 1014.58 1014.86 1015.10 1015.22 1015.46 1015.70 1015.98 1016.34 1016.54 1016.58 1016.82 1016.98 1017.26 1017.50 1017.74 1018.06 1018.14 1018.26 1018.38 1018.38 1018.54 1018.62 1018.70 1018.66 1018.70 1018.58 1018.54 1018.54 1018.58 1018.66 1018.94 1019.38 1019.54 1019.50 1019.34 1019.18 1019.54 1019.74 1019.90 1019.98 1020.02 1020.06 1020.02 1020.02 1020.14 1020.22 1020.22 1020.18 1020.30 1020.38
1014.22 1014.42 1014.66 1015.06 1015.18 1014.94 1015.18 1015.70 1016.06 1016.42 1016.30 1015.06 1014.50 1014.62 1014.86 1015.10 1015.30 1015.46 1015.66 1015.86 1015.94 1016.34 1016.54 1016.66 1016.82 1017.06 1017.38 1017.58 1017.98 1018.10 1018.22 1018.22 1018.26 1018.42 1018.46 1018.46 1018.46 1018.38 1018.34 1018.30 1018.38 1018.62 1019.42 1020.02 1020.10 1020.06 1020.18 1020.58 1020.62 1020.02 1019.82 1019.78 1019.78 1019.78 1019.78 1019.74 1019.78 1019.90 1020.02 1020.06 1020.06 1020.14 1020.18
1014.14 1014.26 1014.38 1014.86 1015.14 1015.14 1015.14 1015.54 1016.10 1016.74 1016.58 1015.82 1015.94 1016.26 1015.18 1015.14 1015.46 1015.70 1015.82 1015.98 1015.98 1016.14 1016.34 1016.50 1016.70 1016.98 1017.18 1017.38 1017.66 1017.94 1018.02 1018.10 1018.10 1018.06 1018.14 1018.14 1018.10 1018.02 1018.02 1018.10 1018.50 1019.30 1019.06 1019.10 1019.34 1019.78 1020.02 1019.98 1020.18 1020.54 1020.38 1019.86 1019.70 1019.74 1019.78 1019.78 1019.66 1019.74 1019.82 1019.90 1019.94 1020.02 1020.18
1014.14 1014.26 1014.34 1014.50 1015.18 1015.34 1015.14 1015.38 1015.86 1016.58 1016.30 1015.66 1015.74 1016.38 1016.58 1015.22 1014.98 1015.26 1015.66 1015.86 1015.98 1016.14 1016.22 1016.30 1016.54 1016.82 1017.10 1017.22 1017.50 1017.70 1017.74 1017.74 1017.70 1017.70 1017.74 1017.70 1017.74 1017.82 1017.82 1017.82 1018.54 1018.90 1018.78 1019.06 1019.30 1019.46 1019.54 1019.62 1019.70 1019.62 1019.74 1019.54 1019.58 1019.58 1019.46 1020.02 1020.70 1020.18 1019.78 1019.74 1019.78 1019.90 1019.98
1014.62 1014.62 1014.54 1014.70 1014.90 1015.30 1015.22 1015.58 1015.82 1016.10 1016.02 1015.82 1015.90 1016.18 1016.66 1016.86 1015.50 1015.42 1015.70 1015.82 1016.06 1016.30 1016.26 1016.14 1016.38 1016.70 1016.90 1017.18 1017.50 1017.66 1017.54 1017.62 1017.62 1017.58 1017.66 1017.78 1017.82 1017.86 1017.86 1017.86 1018.30 1018.54 1018.62 1018.70 1018.82 1019.02 1019.10 1019.14 1019.26 1019.58 1019.74 1019.62 1019.50 1019.74 1019.78 1019.90 1020.10 1019.98 1019.98 1019.94 1019.86 1019.82 1019.90
1015.06 1015.02 1014.94 1014.86 1014.98 1015.14 1015.18 1015.30 1015.42 1015.50 1015.62 1015.70 1015.94 1016.34 1016.78 1017.62 1016.90 1015.62 1015.74 1015.98 1015.94 1016.10 1016.30 1016.26 1016.42 1016.70 1016.98 1017.22 1017.50 1017.54 1017.50 1017.46 1017.62 1017.70 1017.78 1017.78 1017.90 1017.94 1017.90 1017.98 1018.10 1018.26 1018.38 1018.50 1018.58 1018.70 1018.82 1018.98 1019.14 1019.46 1019.66 1019.86 1019.86 1019.86 1019.86 1020.02 1020.14 1020.02 1020.02 1019.86 1019.78 1019.78 1019.82
1015.30 1015.30 1015.26 1015.22 1015.18 1015.18 1015.14 1015.18 1015.18 1015.14 1015.18 1015.62 1015.90 1016.06 1016.42 1017.50 1017.66 1016.22 1016.10 1016.10 1016.06 1016.14 1016.18 1016.26 1016.30 1016.50 1016.94 1017.58 1017.94 1017.78 1017.42 1017.42 1017.62 1017.78 1017.94 1017.94 1018.02 1018.10 1018.10 1018.14 1018.18 1018.30 1018.38 1018.50 1018.58 1018.58 1018.54 1018.70 1019.02 1019.22 1019.42 1019.58 1019.82 1020.10 1020.14 1020.30 1020.38 1020.18 1020.02 1019.90 1019.82 1019.70 1019.78
1015.54 1015.54 1015.54 1015.54 1015.42 1015.26 1015.26 1015.18 1015.22 1015.10 1015.18 1015.46 1015.62 1015.70 1016.02 1016.74 1017.58 1016.58 1016.30 1016.14 1016.02 1015.98 1016.06 1016.42 1016.54 1017.22 1017.22 1017.46 1017.82 1018.22 1017.90 1017.42 1017.58 1017.86 1018.10 1018.18 1018.18 1018.26 1018.30 1018.26 1018.34 1018.46 1018.54 1018.58 1018.66 1018.62 1018.54 1018.70 1018.82 1018.94 1019.10 1019.38 1019.78 1020.14 1020.34 1020.46 1020.54 1020.38 1020.22 1019.98 1019.82 1019.66 1019.62
1015.66 1015.78 1015.74 1015.66 1015.50 1015.54 1015.42 1015.38 1015.22 1015.14 1015.18 1015.18 1015.30 1015.62 1015.62 1015.58 1016.26 1016.42 1015.94 1015.98 1016.02 1015.98 1016.34 1016.58 1017.22 1018.50 1018.14 1017.78 1018.06 1018.26 1018.30 1018.46 1018.26 1018.06 1018.30 1018.30 1018.26 1018.34 1018.54 1018.66 1018.70 1018.74 1018.78 1018.86 1018.78 1018.78 1018.94 1019.02 1019.02 1019.26 1019.38 1019.58 1019.90 1020.22 1020.38 1020.46 1020.54 1020.42 1020.22 1020.10 1019.98 1019.90 1019.62
1015.38 1015.54 1015.70 1015.78 1015.70 1015.70 1015.78 1015.62 1015.58 1015.50 1015.42 1015.26 1015.06 1015.18 1015.46 1015.62 1015.82 1016.02 1015.86 1015.86 1016.06 1016.26 1016.58 1016.94 1017.34 1017.94 1017.98 1017.74 1017.94 1018.06 1017.90 1017.90 1018.82 1019.34 1018.58 1018.42 1018.42 1018.46 1018.66 1018.82 1018.90 1018.86 1018.82 1018.86 1018.94 1019.02 1019.18 1019.22 1019.38 1019.50 1019.70 1019.90 1020.10 1020.38 1020.54 1020.58 1020.54 1020.34 1020.14 1020.02 1019.94 1019.78 1019.70
1015.74 1015.74 1015.86 1015.90 1015.98 1016.14 1016.18 1016.06 1015.90 1015.78 1015.74 1015.78 1015.66 1015.62 1015.62 1015.86 1016.02 1016.06 1015.98 1015.98 1016.30 1016.54 1016.98 1017.26 1017.50 1017.62 1017.58 1017.66 1017.86 1017.94 1017.78 1017.66 1017.98 1019.26 1019.62 1018.82 1018.74 1018.78 1018.86 1018.98 1019.06 1019.06 1019.02 1019.06 1019.18 1019.30 1019.34 1019.46 1019.62 1019.74 1019.86 1020.06 1020.22 1020.38 1020.50 1020.58 1020.58 1020.38 1020.18 1019.98 1019.78 1019.62 1019.50
1015.82 1015.78 1016.02 1016.02 1016.14 1016.42 1016.62 1016.54 1016.38 1016.30 1016.26 1016.06 1016.14 1016.34 1016.18 1016.14 1016.02 1016.06 1016.22 1016.18 1016.46 1016.78 1016.98 1017.26 1017.46 1017.54 1017.58 1017.70 1017.82 1017.82 1017.86 1017.90 1018.10 1018.50 1018.94 1018.90 1018.90 1019.06 1019.22 1019.26 1019.26 1019.26 1019.18 1019.22 1019.38 1019.42 1019.46 1019.58 1019.66 1019.98 1020.18 1020.26 1020.30 1020.34 1020.50 1020.54 1020.54 1020.38 1020.22 1019.98 1019.74 1019.54 1019.42
1015.62 1015.74 1015.82 1015.90 1015.94 1016.22 1016.30 1016.46 1016.46 1016.42 1016.22 1016.06 1016.06 1016.54 1016.78 1016.70 1016.50 1016.66 1016.66 1016.58 1016.66 1016.70 1016.90 1017.14 1017.50 1017.66 1017.66 1017.78 1017.82 1017.94 1017.94 1018.02 1018.50 1019.06 1019.42 1019.14 1018.94 1019.10 1019.22 1019.34 1019.42 1019.38 1019.22 1019.46 1019.58 1019.74 1019.90 1020.02 1020.18 1020.34 1020.50 1020.58 1020.58 1020.54 1020.62 1020.54 1020.46 1020.34 1020.22 1020.02 1019.90 1019.58 1019.50
1015.38 1015.42 1015.58 1015.78 1015.82 1015.86 1016.02 1016.18 1016.18 1016.30 1016.38 1016.46 1016.50 1016.58 1016.70 1016.86 1016.82 1016.86 1017.30 1017.34 1017.02 1016.90 1017.02 1017.14 1017.46 1017.54 1017.66 1017.78 1017.86 1017.86 1017.90 1018.02 1018.34 1019.02 1019.46 1019.46 1019.34 1019.30 1019.26 1019.26 1019.30 1019.38 1019.34 1019.54 1019.74 1019.94 1020.06 1020.14 1020.34 1020.46 1020.54 1020.66 1020.82 1020.78 1020.82 1020.82 1020.70 1020.50 1020.22 1020.02 1019.86 1019.70 1019.66
1015.46 1015.46 1015.54 1015.66 1015.86 1016.06 1016.06 1016.10 1016.02 1016.14 1016.30 1016.42 1016.66 1016.82 1016.70 1016.66 1016.82 1016.98 1017.26 1017.26 1017.18 1017.14 1017.42 1017.70 1017.86 1017.94 1018.02 1017.98 1017.86 1017.74 1017.82 1018.02 1018.34 1018.86 1019.26 1019.42 1019.34 1019.42 1019.54 1019.50 1019.42 1019.42 1019.42 1019.58 1019.74 1020.02 1020.10 1020.26 1020.54 1020.70 1020.74 1020.70 1020.74 1020.74 1020.90 1020.94 1020.86 1020.66 1020.38 1020.18 1020.02 1019.86 1019.82
1015.78 1015.74 1015.78 1015.74 1015.82 1015.86 1015.94 1015.98 1016.14 1016.30 1016.50 1016.66 1016.82 1016.70 1016.70 1016.74 1016.86 1017.10 1017.30 1017.42 1017.34 1017.58 1017.94 1018.18 1018.14 1018.06 1017.90 1017.82 1017.82 1017.94 1018.10 1018.38 1018.58 1018.78 1019.10 1019.38 1019.54 1019.50 1019.46 1019.42 1019.50 1019.66 1019.70 1019.90 1019.98 1020.22 1020.38 1020.54 1020.70 1020.94 1021.06 1021.02 1021.02 1021.02 1021.06 1021.10 1021.06 1020.98 1020.74 1020.50 1020.30 1020.18 1020.10
1015.58 1015.46 1015.70 1015.82 1015.94 1015.86 1016.06 1016.18 1016.30 1016.54 1016.66 1016.70 1016.62 1016.62 1016.62 1016.78 1017.14 1017.50 1017.58 1017.70 1017.90 1018.02 1018.10 1017.98 1017.86 1017.74 1017.70 1017.78 1018.10 1018.38 1018.50 1018.66 1018.78 1018.90 1018.86 1019.06 1019.30 1019.50 1019.70 1019.66 1019.58 1019.62 1019.78 1020.10 1020.34 1020.54 1020.78 1020.94 1021.06 1021.18 1021.34 1021.34 1021.30 1021.26 1021.26 1021.18 1021.30 1021.30 1021.14 1020.86 1020.66 1020.46 1020.42
1015.70 1015.58 1015.50 1015.54 1015.66 1015.90 1016.22 1016.38 1016.54 1016.66 1016.74 1016.70 1016.70 1016.78 1016.86 1016.94 1017.30 1017.62 1017.74 1017.94 1018.22 1018.18 1017.90 1017.86 1017.82 1017.90 1018.06 1018.22 1018.46 1018.58 1018.66 1018.74 1018.82 1018.70 1018.82 1019.06 1019.22 1019.54 1019.86 1019.94 1019.86 1019.90 1020.02 1020.22 1020.50 1020.90 1021.14 1021.22 1021.34 1021.54 1021.70 1021.70 1021.66 1021.62 1021.54 1021.34 1021.38 1021.50 1021.50 1021.38 1021.10 1020.94 1020.78
1016.18 1016.10 1016.10 1016.06 1016.18 1016.14 1016.22 1016.62 1016.86 1017.02 1017.10 1017.06 1017.06 1017.10 1017.18 1017.30 1017.70 1017.94 1018.02 1018.38 1018.46 1018.22 1018.26 1018.22 1018.18 1018.22 1018.38 1018.62 1018.78 1018.86 1018.90 1018.94 1019.02 1019.14 1019.18 1019.38 1019.42 1019.58 1019.94 1019.98 1019.94 1020.06 1020.22 1020.62 1020.98 1021.22 1021.34 1021.30 1021.46 1021.66 1021.90 1021.98 1021.98 1021.90 1021.74 1021.62 1021.50 1021.54 1021.74 1021.78 1021.70 1021.50 1021.34
1016.30 1016.26 1016.22 1016.26 1016.38 1016.54 1016.62 1016.98 1017.14 1017.30 1017.38 1017.38 1017.42 1017.46 1017.54 1017.62 1017.98 1018.14 1018.38 1018.70 1018.42 1018.38 1018.50 1018.62 1018.62 1018.74 1018.86 1019.02 1019.14 1019.14 1019.14 1019.18 1019.26 1019.34 1019.42 1019.50 1019.58 1019.70 1019.90 1020.14 1020.26 1020.50 1020.66 1020.98 1021.30 1021.58 1021.82 1021.58 1021.66 1021.74 1021.90 1022.10 1022.18 1022.02 1021.90 1021.78 1021.78 1021.78 1021.82 1021.98 1022.02 1021.94 1021.82
1016.70 1016.70 1016.70 1016.86 1016.98 1016.94 1017.10 1017.38 1017.62 1017.70 1017.82 1017.82 1017.82 1017.86 1017.90 1017.86 1018.06 1018.34 1018.66 1018.62 1018.30 1018.38 1018.50 1018.62 1018.74 1018.98 1019.22 1019.38 1019.42 1019.42 1019.42 1019.42 1019.50 1019.62 1019.74 1019.82 1019.82 1020.06 1020.22 1020.42 1020.58 1020.94 1021.02 1021.14 1021.42 1021.58 1021.70 1021.70 1021.70 1021.78 1021.86 1022.02 1022.18 1022.14 1022.02 1021.98 1022.02 1022.02 1021.94 1021.94 1022.06 1022.14 1022.14
1017.02 1017.02 1017.06 1017.10 1017.22 1017.26 1017.46 1017.62 1017.78 1017.98 1018.18 1018.22 1018.10 1018.10 1018.10 1018.18 1018.18 1018.58 1018.74 1018.50 1018.50 1018.50 1018.46 1018.66 1019.02 1019.30 1019.46 1019.54 1019.62 1019.70 1019.66 1019.86 1019.94 1019.94 1019.94 1020.02 1020.10 1020.26 1020.38 1020.54 1020.70 1020.90 1021.10 1021.22 1021.42 1021.42 1021.50 1021.58 1021.62 1021.82 1021.98 1022.18 1022.26 1022.30 1022.34 1022.30 1022.22 1022.22 1022.22 1022.18 1022.14 1022.22 1022.34
1017.42 1017.38 1017.42 1017.58 1017.54 1017.50 1017.78 1017.98 1018.22 1018.38 1018.46 1018.58 1018.46 1018.30 1018.30 1018.34 1018.42 1018.50 1018.54 1018.58 1018.58 1018.62 1018.66 1018.62 1019.02 1019.46 1019.58 1019.62 1019.70 1019.78 1019.90 1020.10 1020.18 1020.22 1020.18 1020.22 1020.30 1020.42 1020.54 1020.62 1020.78 1020.94 1021.18 1021.34 1021.42 1021.50 1021.46 1021.50 1021.58 1021.74 1021.94 1022.14 1022.38 1022.50 1022.54 1022.54 1022.54 1022.50 1022.50 1022.50 1022.46 1022.50 1022.54
1017.74 1017.86 1017.82 1017.74 1017.82 1017.86 1018.10 1018.30 1018.50 1018.62 1018.70 1018.86 1018.78 1018.66 1018.58 1018.54 1018.58 1018.58 1018.58 1018.62 1018.62 1018.70 1018.82 1018.82 1019.10 1019.54 1019.74 1019.78 1019.86 1020.02 1020.14 1020.30 1020.38 1020.58 1020.74 1020.78 1020.74 1020.86 1020.98 1021.14 1021.18 1021.22 1021.38 1021.42 1021.46 1021.50 1021.70 1021.66 1021.78 1021.90 1021.98 1022.26 1022.46 1022.66 1022.70 1022.74 1022.70 1022.62 1022.58 1022.66 1022.66 1022.70 1022.82
1017.82 1017.94 1018.06 1018.14 1018.22 1018.18 1018.42 1018.58 1018.74 1018.86 1018.94 1019.06 1019.02 1018.98 1018.98 1018.98 1018.94 1018.90 1018.90 1018.94 1018.98 1018.94 1019.06 1019.22 1019.46 1019.62 1019.78 1019.98 1020.10 1020.26 1020.34 1020.62 1020.82 1021.02 1021.18 1021.38 1021.62 1021.90 1022.06 1021.82 1021.62 1021.62 1021.74 1021.86 1021.70 1021.42 1021.42 1021.62 1021.90 1021.94 1021.94 1022.02 1022.34 1022.58 1022.90 1022.78 1022.70 1022.74 1023.06 1023.10 1023.30 1023.14 1022.98
1018.02 1018.10 1018.30 1018.34 1018.42 1018.50 1018.66 1018.70 1018.74 1018.90 1019.02 1019.14 1019.10 1019.14 1019.22 1019.22 1019.18 1019.14 1019.10 1019.14 1019.18 1019.26 1019.46 1019.58 1019.74 1019.98 1020.06 1020.06 1020.30 1020.58 1020.74 1020.98 1021.14 1021.18 1021.30 1021.34 1021.50 1021.70 1022.18 1022.70 1022.70 1022.34 1021.78 1021.74 1021.98 1021.94 1021.78 1021.46 1021.58 1021.82 1021.94 1022.26 1022.66 1022.74 1022.46 1022.50 1022.58 1022.90 1023.10 1023.22 1023.62 1023.94 1024.06
1018.10 1018.30 1018.46 1018.38 1018.54 1018.70 1018.78 1018.86 1018.90 1018.98 1019.10 1019.18 1019.18 1019.30 1019.38 1019.42 1019.42 1019.34 1019.26 1019.26 1019.26 1019.38 1019.54 1019.70 1019.98 1020.18 1020.30 1020.34 1020.46 1020.58 1020.82 1021.02 1021.22 1021.26 1021.30 1021.30 1021.38 1021.42 1021.54 1021.90 1022.30 1022.62 1022.70 1022.66 1022.66 1022.46 1022.22 1021.98 1021.82 1021.86 1021.86 1021.82 1022.30 1023.14 1023.26 1022.98 1023.10 1023.22 1023.62 1024.06 1024.18 1024.22 1024.18
1018.06 1018.18 1018.34 1018.42 1018.54 1018.78 1018.86 1018.98 1018.98 1019.06 1019.22 1019.26 1019.30 1019.38 1019.42 1019.46 1019.46 1019.46 1019.42 1019.38 1019.42 1019.46 1019.58 1019.78 1020.02 1020.30 1020.42 1020.50 1020.50 1020.58 1020.78 1020.94 1020.98 1021.14 1021.18 1021.30 1021.30 1021.34 1021.42 1021.54 1021.78 1022.10 1022.58 1022.78 1022.74 1022.78 1022.74 1022.62 1022.34 1022.18 1022.14 1022.10 1022.22 1022.54 1023.06 1023.34 1023.30 1023.86 1023.98 1023.90 1023.90 1023.78 1023.78
Wind_Speed
7 8 7 11 12 14 14 14 15 13 13 13 13 14 13 12 12 11 10 10 11 9 9 8 8 7 7 6 5 4 6 6 6 7 6 6 5 6 6 6 6 6 6 6 6 6 6 5 5 5 5 4 4 5 4 4 3 2 2 1 1 2 1
4 8 9 11 12 13 14 13 14 12 12 13 13 14 12 13 12 12 11 11 11 11 10 9 8 7 7 7 6 5 6 6 7 5 5 5 4 5 5 6 6 6 6 6 5 5 6 6 6 6 6 4 4 4 4 3 3 3 3 2 2 1 0
4 6 8 10 13 13 12 13 12 13 14 13 14 13 13 13 13 13 12 11 11 10 9 9 8 7 7 7 6 6 6 5 6 7 7 7 6 6 5 5 5 6 6 5 5 4 4 5 5 6 6 5 5 4 4 3 3 3 3 3 3 2 1
5 3 4 6 14 13 14 13 12 13 14 15 15 15 14 14 13 12 12 13 12 11 11 10 9 8 7 7 7 6 6 6 6 7 7 6 7 6 6 4 4 4 5 6 5 5 4 4 5 6 6 5 4 4 3 4 3 3 3 3 3 3 3
5 5 7 3 4 12 13 11 11 13 15 16 16 15 14 14 13 11 11 12 12 13 12 11 9 7 6 7 6 6 7 7 6 5 6 6 5 5 6 6 6 6 7 6 6 6 4 4 5 5 5 5 4 4 4 4 4 3 3 3 4 3 3
7 7 7 3 3 7 12 12 14 14 16 16 16 14 14 14 12 14 13 12 11 10 9 9 9 8 8 7 7 7 5 5 5 5 5 6 6 6 7 6 6 6 6 7 6 5 5 5 5 5 6 5 5 4 4 4 4 4 3 3 4 3 3
7 11 12 5 1 4 2 10 14 14 15 15 14 13 13 13 14 13 12 12 12 12 11 11 10 9 7 7 6 7 7 6 5 6 5 6 6 6 7 6 6 6 6 4 5 5 4 5 5 6 6 6 4 5 4 4 4 4 3 3 4 3 3
3 5 8 5 2 5 4 11 6 15 13 13 13 13 14 13 12 12 12 12 12 11 10 10 10 9 8 7 7 7 7 7 6 6 5 7 6 7 6 6 7 6 5 6 6 6 6 5 5 5 6 5 5 4 5 5 4 4 3 4 4 4 3
6 3 7 6 5 2 6 5 11 7 14 14 16 15 15 13 12 13 12 12 11 11 11 11 9 9 7 7 7 7 7 7 6 5 6 7 7 7 7 6 6 6 6 7 6 6 6 6 6 6 6 5 5 5 5 5 5 4 4 5 5 5 4
8 7 6 7 5 4 5 5 3 11 6 13 11 12 14 13 13 12 12 12 11 12 11 11 8 9 8 7 7 8 7 7 6 7 6 6 6 7 6 6 5 5 6 6 6 7 6 6 6 6 6 6 6 6 5 5 5 5 5 6 5 5 5
8 8 7 7 6 5 7 6 6 8 10 5 12 12 11 11 12 11 11 10 11 11 10 10 7 9 9 8 7 8 8 8 8 7 7 7 6 7 7 6 6 5 6 2 4 4 1 1 3 3 5 7 6 6 6 7 7 6 5 5 5 6 6
10 9 8 6 6 6 7 5 3 4 7 5 7 9 9 8 7 8 8 10 9 9 7 8 8 9 9 10 8 7 8 8 8 8 8 7 7 8 8 7 6 4 9 5 6 2 5 3 8 2 3 3 4 4 6 7 7 7 6 5 6 6 5
9 10 12 10 7 6 7 5 3 6 3 4 9 9 5 10 9 7 7 7 7 8 8 7 8 8 10 10 9 7 8 8 8 8 8 8 7 7 7 7 4 8 5 5 6 5 3 4 4 5 6 4 0 2 2 4 6 6 5 4 4 5 5
8 9 10 11 10 5 9 9 7 2 1 7 10 4 9 7 11 10 8 9 8 8 8 7 8 8 8 8 9 8 9 7 6 8 8 7 6 6 6 6 8 8 6 4 7 7 6 7 6 7 8 5 3 2 1 4 7 4 3 4 4 4 4
8 8 9 11 13 9 8 8 10 9 6 7 9 7 2 8 4 7 7 6 5 3 6 8 9 8 7 6 6 6 6 5 4 3 3 2 3 3 3 3 8 11 9 8 6 5 6 6 7 7 5 4 4 0 3 6 6 1 2 3 2 3 3
7 6 6 7 9 9 8 9 10 9 6 7 10 9 5 5 5 7 8 6 7 8 5 5 7 7 6 7 6 7 6 7 5 5 4 5 4 3 3 5 7 9 8 8 7 6 5 6 7 6 5 3 1 2 3 2 0 2 5 3 1 2 2
7 7 7 6 6 9 9 10 11 10 11 9 10 10 9 3 7 5 7 6 6 6 5 5 9 8 7 5 1 2 7 7 7 6 6 5 4 4 5 6 6 6 5 5 5 4 4 6 8 7 6 6 5 5 3 2 1 5 3 1 3 1 2
7 7 6 5 4 4 6 9 10 12 13 12 11 12 10 9 5 4 8 7 7 7 6 4 4 3 5 6 4 2 1 6 7 6 7 5 5 3 3 5 6 7 6 6 5 4 3 4 5 4 5 6 6 5 3 2 5 6 6 5 3 2 2
6 4 4 4 4 2 2 3 5 9 11 12 13 11 12 13 11 9 10 9 6 6 5 7 8 2 2 6 5 4 5 7 3 5 5 5 6 4 4 4 5 5 5 5 4 4 4 4 5 5 5 6 6 5 3 3 5 6 6 6 6 6 3
6 7 7 4 4 3 2 2 2 2 3 5 9 9 8 7 8 8 7 7 6 6 6 7 8 7 6 6 5 4 5 8 7 8 1 4 5 6 5 5 5 5 4 4 3 5 5 5 6 6 6 6 6 5 3 3 5 5 5 4 5 4 3
8 8 7 6 5 4 3 3 4 4 6 4 4 5 7 7 6 7 7 6 6 5 6 5 6 5 6 6 5 3 5 8 9 3 4 2 3 4 6 6 6 5 5 5 4 4 5 6 6 5 5 5 5 5 3 2 6 5 4 4 3 5 2
7 7 7 5 6 6 5 5 6 7 6 6 6 5 4 5 4 6 6 6 8 8 7 6 5 5 5 6 5 5 5 7 8 8 4 3 4 5 5 4 5 6 6 6 5 4 5 5 5 5 5 4 5 5 4 2 7 7 7 6 5 4 1
8 8 8 7 6 7 7 7 6 5 5 6 8 6 5 4 7 7 5 6 7 9 9 8 7 6 5 5 4 4 5 6 6 4 3 2 5 6 6 6 5 4 4 6 6 6 5 5 5 4 5 4 4 5 4 3 6 8 7 7 7 2 2
7 7 8 9 8 8 8 7 6 5 7 7 8 6 5 4 5 8 8 5 6 8 8 8 6 5 5 4 4 6 7 7 7 5 1 2 5 5 5 5 4 4 5 6 7 6 6 6 6 5 5 5 4 2 4 3 6 8 7 6 6 3 2
8 8 8 8 9 10 8 6 6 8 7 7 9 6 6 6 5 7 7 6 6 6 7 6 5 5 5 4 4 5 7 8 8 7 3 4 4 5 5 4 5 5 5 6 6 7 6 6 7 6 5 4 4 7 6 4 5 9 9 9 9 4 2
8 8 9 9 9 8 8 8 9 9 8 8 6 5 5 6 7 7 7 6 5 6 6 5 4 4 4 5 5 6 6 5 7 7 6 5 3 3 5 5 5 6 6 6 5 6 6 6 5 6 5 4 4 4 4 5 5 7 11 11 12 10 4
6 8 10 10 10 8 8 8 8 10 10 6 5 5 5 5 7 7 7 7 6 7 6 6 6 6 6 6 6 6 6 5 6 7 7 6 6 5 4 3 6 6 7 7 6 6 6 6 6 6 5 4 4 5 5 4 6 8 12 13 13 13 9
7 7 7 6 8 8 9 9 9 9 9 7 8 7 6 7 8 7 7 7 8 6 5 6 6 6 7 7 6 6 6 6 5 6 7 6 7 7 6 4 5 6 6 6 7 7 6 5 5 5 5 4 3 3 4 6 10 6 11 12 13 13 13
6 7 8 9 7 6 7 9 9 9 8 8 8 7 6 8 9 8 7 9 7 5 5 5 7 7 7 7 6 6 6 6 7 6 5 6 6 8 7 6 7 8 7 7 5 5 5 6 5 5 5 4 4 3 4 5 6 10 8 11 13 12 12
5 6 6 7 8 10 10 9 8 8 7 7 7 7 6 8 9 8 9 7 5 6 5 5 6 6 6 5 5 5 5 6 5 5 4 5 6 7 7 7 6 6 7 6 5 4 4 4 4 5 5 5 4 4 4 4 5 7 10 9 12 12 12
5 5 7 8 8 8 8 9 9 8 8 7 7 5 5 6 9 9 8 4 4 5 6 5 5 5 5 4 4 4 4 4 4 4 3 3 4 5 5 6 5 5 4 5 5 4 4 5 4 4 4 4 4 3 3 4 5 4 7 10 10 11 11
7 7 7 8 8 8 8 8 8 8 8 6 5 5 4 4 6 9 5 4 4 3 5 6 5 4 4 4 4 3 3 4 4 4 3 4 3 3 3 4 4 4 2 2 3 4 5 5 4 5 4 4 4 3 3 4 4 5 5 5 7 7 9
6 7 8 7 6 8 7 6 7 6 7 6 3 4 4 5 4 5 4 5 4 4 4 6 5 3 3 3 3 3 3 4 3 3 4 4 4 4 4 4 5 4 4 4 4 3 3 3 4 5 5 6 4 4 4 3 3 4 4 5 5 5 5
7 6 5 6 5 6 6 6 5 5 5 4 3 3 3 4 4 4 4 4 4 4 3 5 5 5 4 4 3 3 3 4 7 6 5 5 5 5 5 5 4 5 4 4 4 6 5 5 4 5 5 6 5 4 4 3 3 3 3 4 4 4 4
6 6 5 6 5 6 6 5 5 4 4 3 2 3 3 2 2 2 3 2 3 3 4 4 4 6 5 4 4 3 3 5 4 5 6 5 6 5 5 4 3 4 4 1 2 2 6 6 5 4 4 5 6 6 4 3 3 1 2 2 2 2 3
6 7 6 5 6 6 6 5 6 5 5 4 3 4 3 3 2 2 3 3 2 3 3 3 4 4 4 4 4 3 5 5 4 5 5 6 6 6 6 8 8 6 4 3 8 10 8 1 4 5 6 6 3 2 2 4 3 5 5 3 1 2 4
9 7 7 7 7 6 6 5 4 5 5 4 4 4 3 3 3 3 3 3 3 3 3 4 3 3 3 3 3 4 5 5 5 5 5 5 5 5 6 4 6 10 11 10 9 9 10 10 8 7 4 6 4 3 8 8 8 6 3 3 2 2 3
7 7 6 6 6 6 5 5 4 5 4 3 4 4 4 4 2 2 1 2 3 3 4 4 4 5 3 3 3 5 4 5 5 5 5 4 4 5 6 6 6 4 7 9 9 9 9 9 8 6 7 8 9 6 2 2 0 4 4 1 1 2 3
Wind_Direction
176 169 163 160 160 161 163 165 166 164 158 161 164 167 164 165 167 168 171 175 176 175 179 178 182 179 180 183 184 179 181 172 172 176 176 182 177 170 171 178 175 183 184 182 195 192 203 204 198 208 208 199 190 181 190 169 184 190 188 181 124 135 197
203 173 164 166 161 165 164 162 164 160 160 163 163 166 166 167 167 170 174 176 176 177 177 179 182 184 185 184 181 180 180 176 173 171 167 171 178 176 171 173 179 186 190 196 191 201 200 202 194 199 200 200 194 187 185 184 176 178 182 175 171 181 190
210 182 166 168 162 166 167 164 160 159 163 164 163 166 169 169 171 172 172 174 176 175 177 180 182 182 184 184 178 185 183 172 172 173 171 174 179 183 183 172 187 187 197 200 198 207 206 197 196 193 189 192 191 195 185 185 181 176 189 185 186 195 213
192 151 174 170 168 167 170 167 160 160 165 166 167 169 168 171 172 172 172 174 173 176 178 182 181 179 180 181 183 183 180 178 177 178 182 177 180 181 184 190 190 199 199 207 210 208 213 187 193 192 190 185 186 193 189 189 203 187 193 189 204 195 205
155 101 63 57 260 170 168 168 163 161 167 167 168 169 169 169 169 168 173 174 175 179 180 180 180 179 179 179 185 184 185 181 181 177 175 181 180 182 190 194 194 197 199 203 209 208 210 182 184 182 191 187 185 189 197 199 207 198 188 185 202 203 217
140 117 74 359 256 202 171 170 166 163 164 167 168 167 167 167 167 170 172 174 176 177 175 175 181 178 179 184 182 185 182 187 183 181 180 182 175 180 192 194 193 200 193 200 197 195 190 181 175 177 184 192 186 193 197 199 215 207 195 186 207 197 211
114 124 142 223 49 348 286 179 167 165 162 165 165 165 165 168 170 171 171 174 175 173 178 178 181 177 184 179 184 175 185 187 186 189 186 189 189 187 192 193 193 194 198 193 203 191 186 188 188 179 180 181 189 191 198 202 206 216 196 193 215 217 209
113 105 130 139 29 99 76 323 207 167 159 156 164 164 168 169 167 168 171 175 175 173 179 180 180 179 179 182 182 178 186 188 187 190 184 195 192 197 197 200 197 194 192 195 205 193 191 186 188 190 181 184 189 189 196 204 204 201 190 202 211 232 218
141 136 123 100 49 65 112 146 322 268 162 158 162 167 165 166 169 171 172 171 173 173 179 182 180 176 171 178 179 185 187 188 188 183 184 194 193 196 198 202 203 191 191 198 200 199 195 189 186 186 190 190 194 196 194 203 207 200 192 202 206 217 228
159 147 121 114 84 46 75 121 236 322 237 153 158 160 165 169 170 171 171 172 171 175 175 178 175 173 172 173 181 188 188 191 195 190 187 195 197 201 200 201 202 198 195 197 192 195 201 195 187 183 189 196 199 200 204 204 206 201 199 202 207 214 223
155 142 129 124 88 76 75 115 173 230 271 194 158 159 160 165 167 169 170 169 172 176 173 175 170 171 176 176 174 188 187 193 192 194 196 200 200 207 208 207 205 201 205 179 27 347 324 187 137 166 193 197 198 200 207 205 202 199 200 207 208 213 219
155 153 152 138 117 90 91 87 176 229 241 223 165 148 135 134 135 146 154 168 168 162 162 169 171 173 175 182 178 183 186 190 193 193 196 202 203 208 210 211 208 175 75 91 136 170 105 358 332 334 189 201 201 205 199 202 198 194 196 198 205 213 225
158 162 161 164 149 118 105 98 120 195 188 71 37 338 146 128 123 119 126 145 156 154 148 153 164 177 179 180 182 179 189 188 193 196 198 198 203 209 209 210 146 92 171 167 143 128 136 148 131 287 295 265 265 203 208 217 196 190 197 203 197 206 218
145 151 159 157 157 148 131 138 127 138 181 110 111 77 306 152 147 147 140 151 156 154 144 146 152 166 179 182 182 181 190 189 188 197 205 206 206 213 210 205 130 167 166 141 155 169 180 176 185 196 229 215 219 234 208 37 357 302 240 207 195 197 195
142 147 159 163 163 158 146 140 145 163 157 113 103 105 10 306 151 122 122 122 112 136 156 150 150 158 158 166 175 164 155 139 130 132 141 128 140 170 171 152 126 169 176 171 173 165 174 186 193 199 208 219 214 216 79 143 185 232 344 276 224 196 202
118 123 143 163 162 163 154 148 141 139 130 125 123 115 89 291 243 145 132 130 134 142 165 155 143 140 141 150 162 158 150 137 132 127 123 132 137 138 127 118 138 158 171 169 174 183 178 182 189 202 185 167 110 105 127 93 115 1 336 344 246 191 210
120 120 116 114 131 145 151 154 153 144 139 144 139 134 132 155 271 131 121 136 144 149 149 148 140 142 121 102 49 195 148 137 137 130 126 133 131 133 125 126 134 143 149 144 156 170 169 174 183 188 173 165 144 121 95 90 24 354 326 346 325 257 195
134 134 119 107 103 134 144 151 160 156 151 154 156 151 141 144 232 158 143 152 153 162 150 138 100 60 88 101 93 331 259 143 139 129 131 132 132 124 108 118 124 133 138 137 135 135 134 132 142 147 139 128 117 110 111 93 11 351 346 343 330 245 205
126 125 132 116 105 74 113 134 155 161 156 156 159 161 166 163 166 175 162 159 159 146 132 121 105 99 83 90 80 77 52 6 15 120 128 138 138 122 108 111 111 111 115 121 128 117 107 111 103 92 89 107 114 106 93 88 13 1 360 353 343 325 260
108 134 150 135 104 114 79 89 64 62 116 145 146 149 156 170 157 157 153 141 134 134 121 125 134 151 135 107 114 127 105 89 39 341 69 135 130 129 124 119 117 117 116 116 109 111 106 100 99 100 98 99 100 98 81 58 353 349 354 351 340 325 299
98 100 106 110 103 87 76 68 64 75 76 69 96 122 139 132 136 150 137 135 123 102 103 113 127 129 125 121 131 139 128 116 118 141 297 67 108 121 125 125 120 117 120 116 118 117 119 119 117 111 110 106 104 100 82 25 357 339 342 337 339 329 286
95 97 98 91 103 89 68 52 57 52 50 43 38 28 45 88 99 112 119 120 124 121 120 123 128 136 138 142 154 154 140 130 141 153 177 136 116 112 114 118 124 127 125 114 100 92 89 78 89 103 98 94 96 91 71 36 7 352 344 337 334 323 17
109 106 103 94 83 82 91 93 75 72 71 86 98 87 48 42 62 54 65 101 119 125 131 133 138 147 146 146 153 148 134 123 103 71 38 86 117 120 120 120 115 108 114 109 110 107 93 92 88 83 84 79 75 80 65 31 4 358 351 340 330 346 62
106 106 110 107 101 95 91 97 106 98 87 78 69 70 83 70 105 119 115 104 110 121 127 128 126 129 131 131 138 141 136 122 108 98 148 122 111 109 109 107 106 97 112 114 117 106 104 105 98 92 100 103 93 80 77 50 14 10 8 10 358 332 129
111 112 110 109 110 107 100 95 93 92 87 84 82 83 107 116 102 91 92 101 110 114 111 101 104 113 120 117 111 104 107 112 117 125 134 92 84 89 93 92 100 100 95 99 102 104 104 102 100 102 92 91 93 88 83 59 28 22 23 32 26 25 42
124 117 110 108 104 103 104 104 99 86 80 82 89 99 88 94 97 93 94 91 100 101 97 99 107 110 102 92 83 85 86 99 123 128 132 128 120 107 104 107 95 93 97 92 95 105 100 98 95 94 77 64 70 67 60 59 41 27 32 38 37 29 37
118 121 119 116 117 118 109 103 98 99 98 90 86 81 86 92 91 88 86 83 74 80 87 105 111 106 99 89 84 85 103 118 131 123 113 115 109 93 81 81 105 106 103 100 94 97 97 100 102 96 92 78 70 70 52 56 52 35 34 43 48 47 52
111 106 109 112 112 108 109 110 105 101 98 94 96 87 79 79 78 80 86 85 85 82 83 88 90 92 93 91 91 98 94 87 75 94 103 105 111 109 98 90 90 88 96 104 111 111 108 104 97 93 87 72 67 57 41 52 59 48 38 38 50 57 58
106 106 105 102 93 81 91 94 92 91 93 92 91 87 89 91 83 75 70 68 68 75 73 73 78 79 83 89 94 95 96 97 100 98 102 108 109 109 104 91 87 85 83 87 92 98 113 116 113 104 96 87 62 45 53 45 54 58 55 44 45 48 60
101 107 101 89 95 99 96 93 93 92 88 87 87 86 85 95 99 96 89 83 91 94 97 92 87 96 94 87 90 95 99 102 98 96 94 105 101 99 103 97 94 97 107 107 117 131 140 117 127 125 122 107 85 62 41 43 43 57 67 58 51 48 51
105 95 93 99 98 94 94 101 102 96 87 82 84 82 91 105 108 103 93 86 101 104 98 87 84 84 85 83 81 81 78 81 92 98 98 96 106 110 107 107 114 120 129 130 139 149 147 146 144 131 124 106 97 81 69 52 54 46 46 53 61 49 41
89 91 94 97 95 98 104 102 101 101 99 89 90 92 87 77 95 99 98 92 83 85 98 94 88 89 102 105 99 95 96 91 80 80 89 90 80 96 114 129 127 126 127 131 156 159 152 153 142 129 116 119 124 104 68 57 50 46 39 30 37 43 35
109 113 113 105 111 108 102 103 103 108 112 112 108 105 104 97 89 105 111 103 101 94 94 97 89 91 99 113 117 107 95 96 88 76 67 76 84 77 71 72 92 91 93 101 114 109 117 116 124 131 139 141 127 102 82 56 46 43 36 24 27 25 17
110 92 84 98 94 93 89 89 99 104 106 114 120 115 112 112 115 119 113 112 109 105 101 96 97 90 77 90 110 118 112 104 107 96 64 46 57 66 62 50 70 92 88 99 108 118 96 101 100 113 131 132 122 116 99 74 55 32 41 30 27 15 7
105 106 100 85 78 89 103 104 96 95 93 86 79 88 97 109 108 114 122 104 92 103 114 116 107 103 104 96 106 113 103 92 98 106 100 92 73 57 45 31 37 85 105 56 10 63 118 116 103 104 104 116 127 128 119 117 117 145 134 85 81 28 354
101 100 94 96 96 97 98 103 114 110 104 107 104 104 106 115 136 151 144 137 127 104 123 106 102 110 122 116 104 102 109 117 119 121 124 122 121 112 88 65 62 21 50 69 26 26 4 57 134 152 128 107 59 19 142 157 157 118 122 125 32 336 358
117 113 116 117 110 109 111 116 113 111 115 126 117 96 95 97 111 130 146 148 154 138 135 114 120 124 133 129 147 140 137 138 134 136 128 132 128 123 118 110 56 52 46 42 43 26 16 32 78 100 122 123 124 66 46 72 101 129 106 57 348 331 308
117 124 128 126 129 132 130 131 132 134 141 135 108 114 120 122 123 132 126 133 144 141 128 130 133 140 149 155 153 137 138 145 146 141 132 129 127 126 125 118 105 65 46 50 38 33 36 28 34 66 87 110 122 132 74 57 103 102 83 74 4 341 342